User: anonymous   Login
Location: Curicchi
(45.0167°N, 12.0500°E)
Time: 00:44:52
(UTC+00:00)
Language:

NPP - Orbit

View from above orbital plane
View from above orbital plane
View from above satellite
View from above satellite

Ground track
Ground track

The orbit data is extracted from the following two-line orbital elements,

1 37849U 11061A   21167.80605601  .00000028  00000-0  34275-4 0  9998
2 37849  98.7374 106.4873 0000879  67.4572 345.2672 14.19534491499311
Epoch (UTC): 16 June 2021 19:20:43
Eccentricity: 0.0000879
inclination: 98.7374°
perigee height: 826 km
apogee height: 827 km
right ascension of ascending node: 106.4873°
argument of perigee: 67.4572°
revolutions per day: 14.19534491
mean anomaly at epoch: 345.2672°
orbit number at epoch: 49931

The dashed part of the orbit path shows where the satellite is in the earth's shadow,  

DLR